TimeCEST,TemperatureF,Dew PointF,Humidity,Sea Level PressureIn,VisibilityMPH,Wind Direction,Wind SpeedMPH,Gust SpeedMPH,PrecipitationIn,Events,Conditions,WindDirDegrees,DateUTC
12:00 AM,59.0,55.4,88,30.01,-9999.0,Calm,Calm,-,N/A,,Clear,0,2013-06-15 22:00:00
1:00 AM,59.0,55.4,88,29.98,-9999.0,Calm,Calm,-,N/A,,Clear,0,2013-06-15 23:00:00
2:00 AM,59.0,55.4,88,29.98,-9999.0,ESE,2.3,-,N/A,,Clear,110,2013-06-16 00:00:00
3:00 AM,59.0,55.4,88,30.01,-9999.0,Calm,Calm,-,N/A,,Clear,0,2013-06-16 01:00:00
4:00 AM,59.0,55.4,88,29.98,-9999.0,SE,3.5,-,N/A,,Clear,140,2013-06-16 02:00:00
5:00 AM,59.0,55.4,88,30.01,-9999.0,Variable,1.2,-,N/A,,Clear,0,2013-06-16 03:00:00
6:00 AM,59.0,55.4,88,30.04,-9999.0,North,3.5,-,N/A,,Clear,360,2013-06-16 04:00:00
7:00 AM,62.6,57.2,82,30.04,-9999.0,Variable,2.3,-,N/A,,Clear,0,2013-06-16 05:00:00
8:00 AM,66.2,57.2,73,30.04,-9999.0,West,5.8,-,N/A,,Clear,270,2013-06-16 06:00:00
9:00 AM,68.0,51.8,56,30.04,-9999.0,WNW,6.9,-,N/A,,Clear,290,2013-06-16 07:00:00
10:00 AM,69.8,50.0,49,30.06,-9999.0,WNW,8.1,-,N/A,,Clear,290,2013-06-16 08:00:00
11:00 AM,71.6,50.0,46,30.06,6.2,SW,5.8,-,N/A,,Mostly Cloudy,230,2013-06-16 09:00:00
12:00 PM,73.4,50.0,44,30.06,-9999.0,Variable,4.6,-,N/A,,Clear,0,2013-06-16 10:00:00
1:00 PM,73.4,50.0,44,30.04,-9999.0,Variable,3.5,-,N/A,,Clear,0,2013-06-16 11:00:00
2:00 PM,73.4,50.0,44,30.04,-9999.0,North,4.6,-,N/A,,Clear,360,2013-06-16 12:00:00
3:00 PM,75.2,55.4,50,30.01,-9999.0,SW,5.8,-,N/A,,Clear,230,2013-06-16 13:00:00
4:00 PM,77.0,55.4,47,30.01,-9999.0,West,5.8,-,N/A,,Clear,260,2013-06-16 14:00:00
5:00 PM,77.0,55.4,47,30.01,-9999.0,Variable,3.5,-,N/A,,Clear,0,2013-06-16 15:00:00
6:00 PM,78.8,55.4,44,29.98,-9999.0,West,5.8,-,N/A,,Clear,260,2013-06-16 16:00:00
7:00 PM,77.0,55.4,47,29.98,-9999.0,NW,5.8,-,N/A,,Clear,320,2013-06-16 17:00:00
8:00 PM,75.2,57.2,53,29.98,-9999.0,North,5.8,-,N/A,,Clear,360,2013-06-16 18:00:00
9:00 PM,73.4,57.2,57,30.01,-9999.0,Variable,3.5,-,N/A,,Clear,0,2013-06-16 19:00:00
10:00 PM,66.2,59.0,78,30.01,-9999.0,Variable,2.3,-,N/A,,Clear,0,2013-06-16 20:00:00
11:00 PM,62.6,59.0,88,30.01,-9999.0,Calm,Calm,-,N/A,,Clear,0,2013-06-16 21:00:00